Home   Weather   Woodbridge   Past weeks
Flag for USA

Past Weather in Woodbridge, North Carolina, USA — Yesterday and Last 2 Weeks

Now
54 °F

Sunny.


Feels Like: 52 °F
Forecast: 58 / 37 °F
Wind: 7 mph from Northeast

Location: Fayetteville Regional Airport

Current Time: Mar 19, 2019 at 7:48:39 pm

Latest Report: Mar 19, 2019 at 6:53 pm


Visibility: 10 mi

Pressure: 30.29 "Hg

Humidity: 34%

Dew Point: 26 °F

Location of WoodbridgeLocation

Past Weather in Woodbridge — Graph

°F

Woodbridge Temperature Yesterday

Maximum temperature yesterday: 65 °F (at 4:53 pm)
Minimum temperature yesterday: 35 °F (at 6:53 am)
Average temperature yesterday: 50 °F

High & Low Weather Summary for the Past Weeks

 TemperatureHumidityPressure
High79 °F (Mar 15, 1:53 pm)97% (Mar 9, 5:35 am)30.43 "Hg (Mar 9, 5:35 am)
Low26 °F (Mar 7, 2:53 am)16% (Mar 12, 5:53 pm)29.90 "Hg (Mar 15, 4:53 pm)
Average52 °F57%30.18 "Hg
* Reported Mar 4 4:53 pm — Mar 19 5:53 pm, Woodbridge. Weather by CustomWeather, © 2019

Note: Actual official high and low records may vary slightly from our data, if they occured in-between our weather recording intervals... More about our weather records

Advertising

Woodbridge Weather History for the Previous 24 Hours

Scroll right to see more
 ConditionsComfort  
Time TempWeatherWind HumidityBarometerVisibility
5:53 pm
Tue, Mar 19
56 °FSunny.9 mph30%30.29 "Hg10 mi
4:53 pm57 °FSunny.6 mph27%30.29 "Hg10 mi
3:53 pm56 °FSunny.8 mph30%30.32 "Hg10 mi
2:53 pm55 °FSunny.14 mph30%30.33 "Hg10 mi
1:53 pm54 °FSunny.14 mph31%30.37 "Hg10 mi
12:53 pm54 °FSunny.10 mph33%30.40 "Hg10 mi
11:53 am51 °FSunny.10 mph38%30.43 "Hg10 mi
10:53 am48 °FSunny.15 mph43%30.43 "Hg10 mi
9:53 am45 °FSunny.14 mph60%30.40 "Hg10 mi
8:53 am41 °FSunny.12 mph80%30.39 "Hg10 mi
7:53 am37 °FSunny.10 mph89%30.37 "Hg9 mi
6:53 am38 °FClear.10 mph86%30.34 "Hg10 mi
5:53 am38 °FClear.8 mph86%30.35 "Hg10 mi
4:53 am39 °FClear.8 mph82%30.33 "Hg10 mi
3:53 am39 °FClear.10 mph82%30.32 "Hg10 mi
2:53 am41 °FClear.6 mph76%30.32 "Hg10 mi
1:53 am41 °FClear.10 mph76%30.31 "Hg10 mi
12:53 am44 °FClear.12 mph68%30.30 "Hg10 mi
11:53 pm
Mon, Mar 18
46 °FClear.14 mph66%30.30 "Hg10 mi
10:53 pm49 °FClear.8 mph50%30.28 "Hg10 mi
9:53 pm51 °FClear.14 mph39%30.26 "Hg10 mi
8:53 pm54 °FClear.14 mph29%30.24 "Hg10 mi
7:53 pm55 °FClear.8 mph27%30.19 "Hg10 mi
Weather by CustomWeather, © 2019

See weather overview